Location: Hermonville
(49.3365°N, 3.9101°E)
Time: 09:11:16
(UTC+00:00)

Daily predictions for brighter satellites

Satellite Brightness Start Highest point End
(mag) Time Altitude Azimuth Time Altitude Azimuth Time Altitude Azimuth
CENTAUR R/B 2.6 20:22:39 10° SW 20:28:13 86° NW 20:35:25 10° NE
Cosmos 44 Rocket 3.7 20:23:07 10° NW 20:28:16 68° SW 20:33:17 10° SSE
Cosmos 1758 4.1 20:27:40 10° N 20:31:01 32° ENE 20:34:21 10° SE
Meteor 1-27 Rocket 3.9 20:28:11 10° SSW 20:33:47 78° WNW 20:39:21 10° N
Cosmos 2208 Rocket 4.1 20:30:19 10° S 20:35:23 57° ESE 20:40:26 10° NNE
BREEZE-M DEB (TANK) 1.6 20:34:00 10° W 20:36:51 87° N 20:38:51 10° E
SPOT 3 Rocket 3.8 20:34:40 10° SSE 20:39:42 59° ENE 20:44:46 10° N
SL-12 R/B (Aux Motor) 4.3 20:38:27 10° WSW 20:40:39 45° SSE 20:44:34 10° E
Aureole 2 4.5 20:38:09 10° SSW 20:41:02 60° WNW 20:43:48 10° NNE
NOSS 2-2 (D) 4.2 20:39:33 10° WSW 20:42:41 42° NW 20:45:34 10° NNE
YAOGAN 11 4.2 20:38:25 10° NNE 20:42:53 66° ESE 20:47:16 10° S
Cosmos 2082 4.2 20:38:36 10° SW 20:44:10 66° WNW 20:49:47 10° NNE
Cosmos 2227 4.3 20:39:36 10° SSW 20:45:16 65° ESE 20:51:00 10° NNE
Okean 3 Rocket 3.9 20:42:17 10° N 20:46:41 53° ENE 20:50:59 10° SSE
Meteor 2-20 Rocket 4.4 20:41:59 10° S 20:47:47 84° E 20:53:49 10° N
CZ-4 R/B 3.9 20:45:35 10° SW 20:47:58 16° W 20:50:24 10° NW
Cosmos 2263 Rocket 4.2 20:43:27 10° WSW 20:48:28 34° NW 20:53:31 10° NNE
Helios 1A Rocket 3.5 20:45:56 10° N 20:48:56 43° WNW 20:51:55 10° SW
Ariane Rocket 3.3 20:44:24 10° SE 20:49:20 55° ENE 20:54:19 10° N
IRS-1C Rocket 4.4 20:44:46 10° SE 20:49:54 56° ENE 20:55:03 10° N
Okean-O 3.0 20:46:07 10° S 20:50:26 62° WSW 20:54:48 10° NNW
Spot 2 Rocket 4.1 20:47:21 10° S 20:52:19 56° W 20:57:20 10° NNW
Cosmos 1805 Rocket 4.3 20:48:51 10° N 20:52:56 39° ENE 20:56:45 11° SE
NOSS 3-2 (A) 3.1 20:51:04 10° SSW 20:55:57 59° SE 21:01:49 10° NE
Cosmos 1340 Rocket 2.8 20:52:36 10° N 20:56:21 59° ENE 20:59:47 12° SSE
Cosmos 1408 Rocket 4.1 20:52:53 10° N 20:57:07 44° ENE 21:01:00 12° SE
Cosmos 1842 Rocket 3.6 20:53:31 10° S 20:57:58 89° ESE 21:02:27 10° N
Cosmos 1603 3.8 20:52:27 10° NNW 20:58:13 90° WSW 21:03:42 11° SSE
USA 215 3.6 20:51:50 10° ESE 20:58:17 68° NNE 21:04:47 10° WNW
Cosmos 773 Rocket 4.2 20:55:17 10° SSW 21:00:24 76° WNW 21:05:37 10° NNE
BREEZE-M DEB (TANK) 3.1 20:59:28 10° WSW 21:00:53 15° SSW 21:01:55 12° S
Cosmos 1703 4.4 21:04:34 13° SE 21:06:16 19° E 21:08:35 10° NE
USA 245 3.0 21:03:11 10° SSE 21:06:57 81° WSW 21:10:05 10° NNW
Cosmos 1844 Rocket 2.7 21:02:06 10° SSW 21:07:41 89° WNW 21:13:18 10° NNE
Meteor 2-10 Rocket 4.2 21:02:28 10° NNW 21:08:12 61° W 21:13:49 10° S
SL-14 R/B 3.1 21:07:06 10° S 21:10:48 90° SW 21:14:33 10° N
Cosmos 1553 Rocket 4.3 21:07:35 10° SSE 21:13:48 56° E 21:19:56 10° NNE
CZ-4C R/B 3.7 21:07:48 10° NW 21:14:32 46° WSW 21:22:42 10° S
Cosmos 1833 Rocket 3.6 21:12:32 10° NNW 21:17:51 40° NE 21:22:56 11° ESE
Cosmos 1151 Rocket 3.2 21:14:26 11° S 21:18:32 58° E 21:22:48 10° NNE
CZ-2C R/B 2.1 21:23:48 20° SE 21:25:26 54° ENE 21:28:08 10° N
Cosmos 1953 3.3 21:24:17 10° N 21:27:27 28° ENE 21:29:35 16° ESE
SL-24 R/B - RUBIN 2 3.9 21:23:49 10° SW 21:28:19 70° NW 21:32:40 10° NE
Cosmos 1844 4.1 21:23:07 10° SW 21:28:53 71° WNW 21:34:42 10° NNE
CZ-4B R/B 3.6 21:24:45 13° S 21:29:20 75° WSW 21:34:33 10° NNW
Okean O Rocket 3.4 21:26:24 10° SSW 21:30:02 26° W 21:33:42 10° NW
Cosmos 1633 Rocket 4.4 21:31:31 10° N 21:35:18 28° ENE 21:38:07 15° ESE
NOSS 3-2 (C) 3.3 21:32:38 10° SSW 21:37:23 47° ESE 21:43:01 10° NE
Cosmos 1461 3.5 21:39:56 10° NW 21:43:09 34° WSW 21:45:06 19° S
NOSS 2-3 (C) 4.1 21:42:37 22° SE 21:43:23 24° ESE 21:46:16 10° ENE
CZ-4B R/B 4.0 21:42:34 11° SSW 21:45:54 36° W 21:49:35 10° NNW
Cosmos 1745 Rocket 4.2 21:40:08 10° N 21:46:21 63° ENE 21:51:04 18° SSE
Cosmos 1500 Rocket 4.0 21:49:17 10° NNW 21:53:32 56° W 21:56:48 16° S
Helios 1A 3.6 21:52:01 10° NNE 21:55:41 35° E 21:57:26 23° SSE
Cosmos 2344 4.0 21:48:48 11° S 21:55:48 39° ESE 22:02:21 10° NE
GP-B 3.2 21:53:38 10° N 21:58:01 72° W 22:01:23 16° SSW
Iridium 4 Rocket 3.5 21:55:05 16° S 21:59:28 88° E 22:04:33 10° N
Helios 1B rocket 3.4 21:57:42 17° ESE 21:59:30 27° ENE 22:02:28 10° N
Cosmos 1607 4.3 21:54:46 10° NW 22:01:03 59° WSW 22:05:32 20° SSE
ARIANE 5 R/B 4.1 21:59:12 14° ESE 22:02:08 27° ENE 22:05:53 10° N
SWARM C 4.4 22:00:53 10° N 22:04:08 88° W 22:05:40 28° S
SWARM A 4.1 22:01:02 10° N 22:04:17 77° E 22:05:43 30° S
Cosmos 1470 Rocket 4.5 22:03:03 10° N 22:07:13 38° ENE 22:09:41 21° SE
Cosmos 1420 Rocket 4.3 22:04:35 10° NNW 22:09:45 59° ENE 22:13:10 21° SE
NOSS 2-3 (D) 3.0 22:07:03 11° SSW 22:10:31 70° SE 22:14:20 10° NE
Cosmos 1417 Rocket 4.5 22:06:19 17° S 22:11:12 79° E 22:17:32 10° NNE
ALOS 2 3.9 22:11:55 16° ESE 22:14:37 30° ENE 22:18:27 10° N
Cosmos 1538 Rocket 3.9 22:11:36 16° SSW 22:15:49 79° ESE 22:21:04 10° NNE
Cosmos 2315 Rocket 4.1 22:13:38 21° SSE 22:17:50 61° E 22:23:58 10° NNE
Cosmos 1943 Rocket 3.2 22:16:33 22° SE 22:18:58 30° ESE 22:23:49 10° NE
Iridium 45 4.4 22:18:34 28° SSW 22:19:58 61° W 22:23:01 10° N
Meteor 1-21 4.5 22:18:13 23° SSE 22:21:34 54° E 22:27:04 10° NNE
Cosmos 923 Rocket 4.5 22:21:15 24° SSE 22:23:54 43° ESE 22:28:50 10° NE
Cosmos 1328 Rocket 3.5 22:24:39 26° S 22:27:06 80° E 22:31:28 10° NNE
CZ-2C R/B 4.3 22:23:10 10° NNE 22:27:39 43° E 22:29:46 26° SSE
Lacrosse 5 rocket 1.5 22:30:44 35° SSE 22:31:00 36° SE 22:34:16 10° ENE
Cosmos 1666 Rocket 3.7 22:30:56 10° NNW 22:35:16 66° W 22:37:29 27° S
CZ-2C R/B 4.2 22:31:43 11° ESE 22:35:43 25° ENE 22:39:53 10° N
NOSS 2-3 (E) 3.5 22:34:31 10° SW 22:38:08 65° NW 22:42:00 10° NE
Cosmos 1371 Rocket 4.4 22:35:11 10° NNW 22:40:22 55° ENE 22:43:38 22° SE
USA 215 3.5 22:37:29 23° SSE 22:41:29 52° SW 22:47:51 10° WNW
GEOS 3 Rocket 3.6 22:45:16 24° SE 22:48:37 81° SW 22:54:02 10° NW
Timation 1 Rocket 4.4 22:45:24 10° NNW 22:51:22 72° WSW 22:54:45 27° SSE
S3M 4.3 22:48:41 17° SSW 22:53:25 63° WNW 22:59:31 10° N
NOSS 2-1 (D) 4.4 22:55:58 23° ESE 22:55:58 23° ESE 22:58:04 10° ENE
Cosmos 1515 Rocket 3.6 22:55:38 33° S 22:57:28 68° E 23:01:47 10° NNE
CSL-04 DEB 4.0 22:57:32 40° S 22:58:47 84° WSW 23:02:30 10° NNW
Cosmos 2184 Rocket 4.4 22:52:52 10° N 22:59:00 55° ENE 23:02:54 23° SE
ARGOS Delta rocket 4.1 22:53:46 10° N 22:59:12 85° WNW 23:02:18 25° SSW
USA 59 Rocket 0.4 23:01:29 30° ESE 23:01:29 30° ESE 23:03:59 10° ENE
Cosmos 1833 Rocket 3.4 22:56:31 10° NW 23:01:47 41° WSW 23:04:36 24° SSW
Spot 4 3.8 22:59:30 30° SSE 23:01:53 86° WSW 23:06:45 10° NNW
Cosmos 1953 3.9 22:59:25 10° NW 23:02:12 21° W 23:03:47 16° SW
Meteor 1-16 Rocket 4.4 23:00:10 10° NNW 23:05:35 61° W 23:08:42 26° SSW
SAR-Lupe-2 4.1 23:05:52 32° ESE 23:06:49 42° ENE 23:09:53 10° N
Cosmos 2082 Rocket 2.7 23:02:15 10° NNW 23:07:48 55° NE 23:11:51 18° SE
Okean 3 3.5 23:09:18 37° SSE 23:10:36 58° E 23:14:32 10° NNE
Meteor 1-23 Rocket 4.5 23:07:55 21° SSW 23:11:40 63° WNW 23:17:13 10° N
Cosmos 2278 Rocket 2.3 23:09:54 28° S 23:12:45 58° ESE 23:18:18 10° NE
Cosmos 1633 Rocket 4.2 23:09:01 10° NNW 23:12:58 33° W 23:15:02 22° SW
Cosmos 1400 Rocket 2.5 23:20:48 10° NNW 23:24:29 73° W 23:25:30 45° S
Cosmos 1624 Rocket 4.1 23:19:27 10° NNW 23:24:44 68° WSW 23:27:15 31° S
Cosmos 1680 Rocket 3.5 23:22:43 26° SSW 23:25:44 83° WNW 23:30:58 10° NNE
COSMOS 2406 4.3 23:20:37 10° NNW 23:25:59 40° NE 23:31:18 10° ESE
CZ-2C R/B 3.3 23:21:32 10° NNE 23:27:04 61° E 23:29:38 30° S
Cosmos 494 Rocket 3.9 23:24:39 28° SSW 23:27:28 87° ESE 23:32:44 10° NNE
NOSS 3-2 (C) 4.4 23:23:13 10° WSW 23:28:16 43° NNW 23:34:21 10° NE
Cosmos 2056 Rocket 3.7 23:26:27 10° NNW 23:31:27 57° WSW 23:33:39 31° S
Helios 1B rocket 3.6 23:31:35 21° WSW 23:32:23 23° W 23:35:15 10° NW
Cosmos 1048 Rocket 4.4 23:31:20 31° SSE 23:33:30 50° ESE 23:38:33 10° NNE
Cosmos 1328 4.3 23:35:16 34° SE 23:36:04 40° E 23:39:25 10° NNE
Cosmos 1812 3.9 23:34:58 10° NNW 23:35:32 17° NNW 23:35:32 17° NNW
ARIANE 5 R/B 3.5 23:36:34 28° SW 23:38:16 39° W 23:42:28 10° NNW
ACS3 Solar Sail 2.4 23:34:49 10° NNE 23:40:11 40° E 23:43:11 23° SSE
USA 238 DEB 3.5 23:36:16 20° SW 23:40:44 84° SE 23:47:34 10° NE
USA 238 3.5 23:36:31 20° SW 23:40:57 84° SE 23:47:47 10° NE
Lacrosse 4 Rocket 4.4 23:39:51 10° N 23:41:50 13° NNE 23:43:48 10° ENE
Cosmos 546 4.4 23:46:11 16° WSW 23:49:06 81° SSE 23:52:53 10° ENE
BREEZE-M DEB (TANK) 3.4 23:36:24 10° W 23:49:33 89° N 23:53:33 10° E
ALOS 2 3.6 23:49:18 26° SW 23:50:53 34° W 23:54:54 10° NNW
Cosmos 1933 Rocket 4.2 23:48:14 10° NNW 23:52:19 43° W 23:53:53 30° SW
Cosmos 1441 Rocket 3.1 23:54:17 42° SW 23:55:01 54° WNW 23:58:13 10° N
